Location: Caltech
(34.1382°N, 118.1253°W)
Time: 22:50:47
(UTC-07:00)

Transit 2A - Visible Passes

Search period start: 31 March 2015 00:00
Search period end: 10 April 2015 00:00
Orbit: 592 x 969 km, 66.7° (Epoch: 30 March)

Date Brightness Start Highest point End Pass type
(mag) Time Alt. Az. Time Alt. Az. Time Alt. Az.
31 Mar 8.1 21:34:28 10° N 21:37:42 20° NNE 21:37:42 20° NNE visible
31 Mar 8.8 23:16:53 10° NW 23:18:13 17° NW 23:18:13 17° NW visible
01 Apr 8.1 21:01:24 10° N 21:04:52 16° NE 21:05:03 16° NE visible
01 Apr 8.2 22:43:00 10° NNW 22:45:34 26° NNW 22:45:34 26° NNW visible
02 Apr 8.3 20:29:02 10° NNE 20:30:38 11° NE 20:32:25 10° ENE visible
02 Apr 7.5 22:09:15 10° NNW 22:12:57 37° N 22:12:57 37° N visible
03 Apr 7.0 21:35:37 10° NNW 21:40:22 41° NNE 21:40:22 41° NNE visible
03 Apr 8.9 23:19:50 10° NW 23:20:54 14° WNW 23:20:54 14° WNW visible
04 Apr 7.1 21:02:05 10° N 21:07:31 33° NE 21:07:50 32° ENE visible
04 Apr 8.2 22:45:28 10° NW 22:48:22 24° WNW 22:48:22 24° WNW visible
05 Apr 7.5 20:28:43 10° N 20:33:28 24° NE 20:35:21 20° ENE visible
05 Apr 7.2 22:11:22 10° NW 22:15:52 42° WNW 22:15:52 42° WNW visible
06 Apr 8.0 19:55:34 10° N 19:59:20 17° NE 20:02:54 11° E visible
06 Apr 6.2 21:37:25 10° NNW 21:43:27 75° WSW 21:43:27 75° WSW visible
07 Apr 6.1 21:03:38 10° NNW 21:09:42 75° ENE 21:11:04 53° SE visible
07 Apr 8.7 22:49:46 10° WNW 22:51:37 12° W 22:51:37 12° W visible
08 Apr 6.5 20:29:57 10° NNW 20:35:51 51° ENE 20:38:46 27° ESE visible
08 Apr 8.2 22:14:30 10° WNW 22:18:40 19° WSW 22:19:19 19° WSW visible
09 Apr 7.0 19:56:24 10° N 20:01:55 36° NE 20:06:31 13° ESE visible
09 Apr 7.7 21:40:01 10° NW 21:45:05 29° WSW 21:47:05 23° SW visible
